Regional Weather Roundup
Issued by NWS Burlington, VT

Home | Current Version | Previous Version | Text Only | Print | Product List | Glossary On
Versions: 1 2 3 4 5 6 7 8 9 10 11 12 13 14 15 16 17 18 19 20 21 22 23 24 25 26 27 28 29 30 31 32 33 34 35 36 37 38 39 40 41 42 43 44 45 46 47 48 49 50
000
ASUS41 KBTV 261330
RWRBTV
VERMONT REGIONAL WEATHER ROUNDUP
NATIONAL WEATHER SERVICE BURLINGTON VT
900 AM EDT FRI MAY 26 2017

NOTE: "FAIR" INDICATES FEW OR NO CLOUDS BELOW 12,000 FEET WITH NO
SIGNIFICANT WEATHER AND/OR OBSTRUCTIONS TO VISIBILITY.

* THESE REPORTS ARE NOT UNDER NWS QUALITY CONTROL AND/OR DO NOT
  REPORT WEATHER SUCH AS PRECIPITATION AND FOG.

VTZ001>019-261400-
_____VERMONT_____


CITY           SKY/WX    TMP DP  RH WIND       PRES   REMARKS
BURLINGTON     LGT RAIN  55  54  96 CALM      29.55F
MONTPELIER     RAIN      50  50 100 N3        29.58S FOG
MORRISVILLE    LGT RAIN  51  49  92 N5        29.57S
ST. JOHNSBURY*   N/A     50  49  96 MISG      29.52F
LYNDONVILLE*   HVY RAIN  48  46  93 CALM      29.55S
MIDDLEBURY*    RAIN      53  52  96 CALM      29.55S
RUTLAND*       LGT RAIN  52  50  93 CALM      29.56S
SPRINGFIELD    LGT RAIN  51  49  92 CALM      29.56R FOG
HIGHGATE*      CLOUDY    55  51  89 N5        29.57R
NEWPORT*       RAIN      50  48  93 N6        29.57F
BENNINGTON     LGT RAIN  53  50  89 CALM      29.55S
SUTTON*          N/A     46 N/A N/A MISG        N/A
UNION VILLAGE*   N/A     54 N/A N/A MISG        N/A
MT. MANSFIELD*   N/A     45 N/A N/A W12         N/A

_____LAKE CHAMPLAIN_____


CITY           SKY/WX    TMP DP  RH WIND       PRES   REMARKS
BURTON ISLAND*   N/A     55  54  94 NE1         N/A
COLCHESTER RF*   N/A     54  54 100 N10         N/A
DIAMOND ISL*     N/A     54  52  94 NE5         N/A

$$

NYZ007-026>031-035-052-083-087-261400-
_____NORTHERN NEW YORK_____


CITY           SKY/WX    TMP DP  RH WIND       PRES   REMARKS
PLATTSBURGH    CLOUDY    55  52  89 NW8       29.56S
SARANAC LAKE   CLOUDY    51  51 100 N5        29.56S
MASSENA        CLOUDY    56  53  90 NE10      29.62R
OGDENSBURG*    CLOUDY    55  55  97 NE6       29.61R FOG
POTSDAM*       LGT RAIN  55  55 100 NE8       29.61R
WATERTOWN      CLOUDY    58  56  93 NW7       29.61R
FT DRUM        CLOUDY    55  54  94 NW5       29.60S
ALBANY         LGT RAIN  56  52  86 NW8       29.57S

$$
NHZ002-005-011-261400-
_____NEW HAMPSHIRE_____


CITY           SKY/WX    TMP DP  RH WIND       PRES   REMARKS
LEBANON        LGT RAIN  54  52  93 S5        29.54R FOG
KEENE          LGT RAIN  52  50  93 NW5       29.56S
MT WASHINGTON  FOG       36  36 100 NE13G22     N/A  VSB 1/2 WCI  27
PLYMOUTH       LGT RAIN  51  48  90 CALM      29.55R
WHITEFIELD     CLOUDY    50  45  83 E10       29.54R

$$

_____REGIONAL QUEBEC LOCATIONS_____


CITY           SKY/WX    TMP DP  RH WIND       PRES   REMARKS
MONTREAL       DRIZZLE   55  52  88 NE16G23   29.61R
QUEBEC CITY    LGT RAIN  52  46  82 E16G26    29.74R FOG
SHERBROOKE     PTSUNNY   52  50  93 NE9       29.57F

_____REGIONAL ONTARIO LOCATIONS_____


CITY           SKY/WX    TMP DP  RH WIND       PRES   REMARKS
OTTAWA         LGT RAIN  55  54  94 NE9       29.66R

______KEY______
VSB  - VISIBILITY IN MILES
WCI  - WIND CHILL INDEX
HX   - HEAT INDEX
$$
NNNN




USA.gov is the U.S. government's official web portal to all federal, state and local government web resources and services.